Voltar ao catálogo

CZ-6A DEB

AtivoPO
NORAD 61357·DEBRIS·🇨🇳 China

Lançado Aug 6, 2024 de Taiyuan Satellite Launch Center

Loading…

Próximas Passagens (próximas 24 horas)

TLE

AtualizadoSource: Space-Track

Época: Sep 14, 2026, 08:55 UTC

1 61357U 24140VW  26257.37203303  .00001775  00000-0  71672-3 0  9992
2 61357  88.6834 235.5339 0101609 181.0654 179.0339 14.24738313105276

Acompanhe CZ-6A DEB em tempo real com AllMySat

Download on the App Store